This is the latest recevied weather packets stored in our database for station/object K3FAZ. If no packets are shown the sender has not sent any weather packets the latest 10 day(s).
| Time | Temp. | Humidity | Pressure | Rain* | Wind** | Luminosity | Snow |
|---|---|---|---|---|---|---|---|
| 1777510015 | 11.67° C | 94% | 1011.1 hPa | 0 mm | - | 0 W/m² | - |
| 1777509710 | 11.67° C | 94% | 1011.2 hPa | 0 mm | - | 0 W/m² | - |
| 1777509407 | 11.67° C | 94% | 1011.2 hPa | 0 mm | - | 0 W/m² | - |
| 1777509105 | 11.67° C | 94% | 1011.1 hPa | 0 mm | - | 0 W/m² | - |
| 1777508801 | 12.22° C | 94% | 1011 hPa | 0 mm | - | 0 W/m² | - |
| 1777508498 | 12.22° C | 94% | 1010.9 hPa | 0 mm | - | 1 W/m² | - |
| 1777508196 | 12.22° C | 94% | 1010.9 hPa | 0 mm | - | 1 W/m² | - |
| 1777507892 | 12.22° C | 94% | 1010.8 hPa | 0 mm | - | 2 W/m² | - |
| 1777507590 | 12.22° C | 94% | 1010.8 hPa | 0 mm | - | 3 W/m² | - |
| 1777507286 | 12.22° C | 94% | 1010.7 hPa | 0 mm | - | 5 W/m² | - |
| 1777506984 | 12.22° C | 95% | 1010.6 hPa | 0 mm | - | 3 W/m² | - |
| 1777506681 | 12.78° C | 95% | 1010.6 hPa | 0 mm | - | 6 W/m² | - |
| 1777506377 | 12.78° C | 95% | 1010.7 hPa | 0 mm | - | 14 W/m² | - |
| 1777506073 | 12.78° C | 95% | 1010.5 hPa | 0 mm | - | 13 W/m² | - |
| 1777505769 | 12.78° C | 95% | 1010.2 hPa | 0 mm | - | 9 W/m² | - |
| 1777505466 | 12.78° C | 95% | 1010.3 hPa | 0 mm | - | 19 W/m² | - |
| 1777505162 | 12.78° C | 96% | 1010.1 hPa | 0 mm | - | 23 W/m² | - |
| 1777504859 | 12.78° C | 95% | 1009.9 hPa | 1.78 mm | - | 40 W/m² | - |
| 1777504556 | 12.78° C | 95% | 1010.1 hPa | 1.78 mm | - | 26 W/m² | - |
| 1777504252 | 12.78° C | 94% | 1009.9 hPa | 0 mm | - | 25 W/m² | - |
| 1777503948 | 12.78° C | 94% | 1010 hPa | 0 mm | - | 25 W/m² | - |
| 1777503644 | 13.89° C | 92% | 1009.8 hPa | 0 mm | - | 22 W/m² | - |
| 1777503341 | 13.89° C | 92% | 1009.9 hPa | 0 mm | - | 12 W/m² | - |
| 1777503037 | 13.89° C | 91% | 1009.7 hPa | 0 mm | - | 16 W/m² | - |
| 1777502735 | 14.44° C | 91% | 1009.6 hPa | 0 mm | - | 32 W/m² | - |
* Rain latest hour (hover to see other rain measurements)
** Current wind speed in m/s (hover to see current wind gust speed)